QPF
0.01 0.02 0.02 0.01 0.01 0.00 0.00 0.00 0.00 0.02 0.03 0.04 0.06 0.10 0.10 0.02 0.01 0.01 0.01 0.01 0.01 0.02 0.04 0.05 0.06 0.05 0.05 0.05 0.05 0.04 0.05 0.06 0.07 0.06 0.08 0.10 0.12 0.10 0.08 0.07 0.07 0.08 0.08 0.10
0.01 0.01 0.01 0.01 0.01 0.00 0.00 0.00 0.00 0.02 0.05 0.05 0.05 0.07 0.06 0.01 0.00 0.01 0.02 0.01 0.01 0.03 0.04 0.05 0.05 0.06 0.04 0.06 0.06 0.05 0.06 0.06 0.08 0.08 0.08 0.09 0.10 0.10 0.08 0.08 0.10 0.10 0.09 0.08
0.02 0.01 0.02 0.01 0.00 0.00 0.01 0.00 0.00 0.02 0.05 0.04 0.03 0.04 0.04 0.03 0.01 0.01 0.01 0.01 0.03 0.04 0.05 0.05 0.05 0.06 0.05 0.05 0.06 0.07 0.07 0.09 0.10 0.10 0.10 0.09 0.09 0.09 0.08 0.08 0.10 0.10 0.09 0.09
0.04 0.03 0.03 0.02 0.01 0.00 0.00 0.00 0.00 0.02 0.03 0.05 0.07 0.04 0.05 0.06 0.03 0.05 0.03 0.03 0.05 0.05 0.06 0.06 0.06 0.06 0.07 0.07 0.07 0.08 0.10 0.13 0.14 0.12 0.12 0.12 0.11 0.09 0.08 0.07 0.07 0.08 0.07 0.08
0.04 0.04 0.04 0.03 0.01 0.01 0.01 0.01 0.01 0.02 0.04 0.03 0.06 0.07 0.05 0.04 0.05 0.08 0.06 0.05 0.06 0.06 0.06 0.06 0.06 0.07 0.08 0.08 0.07 0.08 0.11 0.12 0.14 0.13 0.13 0.13 0.12 0.11 0.10 0.10 0.09 0.09 0.08 0.08
0.05 0.06 0.07 0.05 0.02 0.01 0.02 0.05 0.01 0.01 0.02 0.02 0.03 0.06 0.08 0.05 0.04 0.08 0.05 0.03 0.04 0.06 0.07 0.07 0.07 0.07 0.09 0.08 0.06 0.06 0.07 0.07 0.09 0.09 0.10 0.11 0.13 0.12 0.12 0.12 0.11 0.11 0.11 0.11
0.05 0.09 0.10 0.07 0.04 0.02 0.04 0.06 0.02 0.02 0.02 0.02 0.02 0.03 0.05 0.03 0.01 0.04 0.03 0.02 0.02 0.03 0.05 0.07 0.08 0.08 0.10 0.08 0.05 0.06 0.06 0.06 0.07 0.07 0.09 0.09 0.10 0.11 0.12 0.12 0.13 0.12 0.12 0.13
0.09 0.15 0.16 0.07 0.05 0.07 0.06 0.02 0.02 0.02 0.01 0.01 0.02 0.02 0.01 0.01 0.01 0.02 0.02 0.02 0.02 0.03 0.04 0.05 0.07 0.07 0.07 0.09 0.06 0.06 0.09 0.09 0.08 0.08 0.07 0.07 0.09 0.10 0.11 0.12 0.12 0.12 0.12 0.11
0.11 0.14 0.11 0.07 0.07 0.05 0.03 0.03 0.02 0.02 0.02 0.02 0.02 0.02 0.02 0.01 0.01 0.01 0.01 0.02 0.03 0.03 0.04 0.04 0.06 0.08 0.11 0.11 0.09 0.10 0.10 0.11 0.11 0.10 0.10 0.10 0.10 0.11 0.12 0.12 0.11 0.10 0.10 0.10
0.12 0.08 0.06 0.05 0.06 0.07 0.04 0.03 0.02 0.02 0.02 0.01 0.01 0.02 0.02 0.03 0.02 0.01 0.01 0.02 0.03 0.05 0.04 0.05 0.05 0.07 0.10 0.11 0.10 0.11 0.12 0.12 0.11 0.10 0.11 0.13 0.12 0.11 0.10 0.09 0.09 0.09 0.09 0.09
0.13 0.10 0.07 0.06 0.05 0.07 0.05 0.03 0.02 0.02 0.02 0.02 0.02 0.02 0.03 0.05 0.05 0.03 0.03 0.03 0.04 0.06 0.07 0.06 0.04 0.04 0.06 0.12 0.18 0.15 0.14 0.13 0.13 0.11 0.12 0.11 0.10 0.08 0.07 0.06 0.07 0.06 0.06 0.07
0.14 0.10 0.07 0.07 0.07 0.09 0.05 0.02 0.02 0.02 0.02 0.01 0.01 0.03 0.05 0.07 0.07 0.04 0.02 0.02 0.02 0.03 0.04 0.05 0.04 0.05 0.07 0.10 0.19 0.24 0.20 0.16 0.13 0.14 0.14 0.11 0.11 0.09 0.06 0.06 0.06 0.04 0.05 0.05
0.10 0.06 0.06 0.06 0.06 0.05 0.03 0.02 0.02 0.02 0.02 0.01 0.01 0.03 0.06 0.10 0.08 0.03 0.01 0.01 0.01 0.02 0.02 0.03 0.03 0.05 0.08 0.09 0.12 0.18 0.21 0.19 0.16 0.15 0.13 0.11 0.09 0.08 0.06 0.05 0.04 0.03 0.03 0.03
0.06 0.06 0.06 0.04 0.03 0.02 0.02 0.02 0.02 0.03 0.02 0.01 0.01 0.02 0.05 0.07 0.07 0.03 0.01 0.01 0.01 0.01 0.01 0.02 0.03 0.04 0.07 0.08 0.09 0.13 0.15 0.15 0.15 0.14 0.11 0.09 0.07 0.06 0.05 0.04 0.03 0.03 0.03 0.02
0.03 0.04 0.03 0.02 0.01 0.02 0.01 0.01 0.02 0.03 0.02 0.01 0.01 0.01 0.03 0.04 0.04 0.03 0.01 0.01 0.01 0.01 0.02 0.03 0.04 0.05 0.06 0.08 0.08 0.11 0.12 0.10 0.10 0.11 0.11 0.11 0.10 0.07 0.06 0.04 0.04 0.04 0.03 0.03
0.03 0.03 0.03 0.01 0.01 0.02 0.02 0.01 0.01 0.03 0.02 0.02 0.02 0.02 0.02 0.04 0.03 0.03 0.03 0.02 0.02 0.02 0.03 0.04 0.04 0.05 0.06 0.08 0.10 0.11 0.13 0.12 0.10 0.10 0.11 0.13 0.13 0.12 0.10 0.08 0.07 0.07 0.06 0.04
0.04 0.04 0.03 0.03 0.02 0.02 0.02 0.01 0.01 0.03 0.05 0.05 0.05 0.04 0.03 0.03 0.03 0.04 0.04 0.03 0.03 0.02 0.03 0.04 0.05 0.06 0.06 0.08 0.09 0.10 0.11 0.10 0.09 0.09 0.10 0.10 0.09 0.10 0.08 0.08 0.08 0.08 0.06 0.05
0.04 0.04 0.03 0.03 0.03 0.03 0.02 0.02 0.02 0.04 0.06 0.05 0.05 0.05 0.05 0.04 0.04 0.04 0.04 0.04 0.04 0.03 0.03 0.04 0.05 0.06 0.06 0.07 0.09 0.10 0.11 0.09 0.09 0.10 0.10 0.09 0.09 0.09 0.08 0.06 0.06 0.06 0.05 0.05
0.04 0.04 0.03 0.02 0.02 0.03 0.04 0.03 0.04 0.04 0.03 0.04 0.05 0.03 0.03 0.02 0.02 0.02 0.02 0.03 0.03 0.03 0.04 0.04 0.06 0.06 0.08 0.10 0.11 0.13 0.14 0.10 0.10 0.11 0.09 0.08 0.08 0.09 0.10 0.08 0.07 0.05 0.04 0.03
0.04 0.04 0.04 0.04 0.03 0.04 0.04 0.05 0.06 0.06 0.05 0.04 0.04 0.03 0.03 0.03 0.04 0.04 0.04 0.04 0.04 0.03 0.04 0.05 0.06 0.08 0.10 0.12 0.12 0.13 0.14 0.11 0.10 0.09 0.06 0.05 0.05 0.06 0.07 0.09 0.09 0.08 0.07 0.05
0.05 0.04 0.05 0.05 0.04 0.04 0.05 0.06 0.07 0.07 0.06 0.04 0.04 0.04 0.05 0.06 0.06 0.06 0.06 0.06 0.05 0.04 0.04 0.05 0.06 0.09 0.12 0.13 0.13 0.12 0.13 0.10 0.09 0.07 0.05 0.05 0.04 0.04 0.04 0.05 0.07 0.08 0.08 0.08
0.05 0.05 0.05 0.05 0.05 0.06 0.06 0.07 0.07 0.06 0.05 0.04 0.03 0.03 0.04 0.04 0.05 0.05 0.07 0.07 0.07 0.06 0.05 0.05 0.06 0.10 0.12 0.11 0.10 0.11 0.12 0.12 0.10 0.08 0.06 0.05 0.04 0.04 0.04 0.04 0.04 0.04 0.03 0.03
0.05 0.06 0.07 0.08 0.07 0.07 0.07 0.07 0.06 0.06 0.06 0.06 0.06 0.05 0.04 0.04 0.04 0.05 0.06 0.05 0.04 0.04 0.04 0.06 0.07 0.07 0.07 0.06 0.06 0.07 0.09 0.11 0.13 0.12 0.11 0.09 0.08 0.06 0.06 0.07 0.07 0.06 0.04 0.03
0.07 0.08 0.10 0.10 0.07 0.06 0.06 0.05 0.05 0.05 0.05 0.06 0.07 0.07 0.05 0.03 0.02 0.03 0.06 0.06 0.04 0.03 0.03 0.05 0.05 0.04 0.03 0.02 0.03 0.03 0.04 0.05 0.07 0.09 0.11 0.12 0.12 0.11 0.09 0.08 0.08 0.07 0.05 0.03
0.09 0.10 0.11 0.10 0.07 0.06 0.05 0.05 0.04 0.04 0.03 0.04 0.04 0.05 0.05 0.03 0.01 0.01 0.02 0.04 0.04 0.04 0.04 0.05 0.05 0.05 0.03 0.03 0.03 0.03 0.03 0.04 0.04 0.04 0.05 0.07 0.08 0.09 0.08 0.07 0.06 0.05 0.04 0.03
0.08 0.09 0.09 0.08 0.07 0.06 0.05 0.04 0.03 0.03 0.03 0.03 0.03 0.03 0.02 0.01 0.01 0.01 0.01 0.01 0.01 0.02 0.02 0.03 0.02 0.02 0.02 0.03 0.03 0.04 0.04 0.03 0.03 0.02 0.02 0.02 0.03 0.04 0.04 0.04 0.04 0.04 0.04 0.03
0.07 0.07 0.06 0.06 0.06 0.05 0.04 0.03 0.02 0.02 0.02 0.02 0.01 0.01 0.01 0.01 0.01 0.01 0.01 0.01 0.01 0.01 0.01 0.01 0.01 0.01 0.01 0.01 0.01 0.01 0.01 0.01 0.01 0.01 0.01 0.02 0.03 0.03 0.04 0.04 0.04 0.04 0.03 0.03
MSLP
1005.49 1005.34 1005.23 1005.21 1005.29 1005.48 1005.73 1006.00 1006.23 1006.36 1006.33 1006.13 1005.77 1005.30 1004.77 1004.27 1003.87 1003.63 1003.59 1003.76 1004.12 1004.61 1005.18 1005.77 1006.32 1006.79 1007.18 1007.49 1007.73 1007.95 1008.17 1008.40 1008.68 1008.99 1009.32 1009.65 1009.97 1010.26 1010.51 1010.73 1010.93 1011.11 1011.30 1011.52
1005.78 1005.39 1004.97 1004.60 1004.31 1004.15 1004.12 1004.22 1004.40 1004.63 1004.84 1005.01 1005.09 1005.08 1005.00 1004.88 1004.77 1004.70 1004.71 1004.83 1005.06 1005.38 1005.77 1006.20 1006.63 1007.03 1007.39 1007.70 1007.96 1008.18 1008.38 1008.57 1008.76 1008.94 1009.12 1009.29 1009.45 1009.59 1009.72 1009.84 1009.96 1010.10 1010.26 1010.46
1006.00 1005.41 1004.75 1004.06 1003.45 1002.97 1002.69 1002.61 1002.75 1003.05 1003.48 1003.97 1004.46 1004.90 1005.26 1005.53 1005.72 1005.85 1005.96 1006.07 1006.22 1006.41 1006.65 1006.94 1007.25 1007.58 1007.90 1008.20 1008.46 1008.67 1008.85 1008.98 1009.07 1009.12 1009.15 1009.15 1009.15 1009.13 1009.13 1009.14 1009.18 1009.26 1009.39 1009.55
1006.21 1005.52 1004.69 1003.80 1002.95 1002.23 1001.74 1001.51 1001.59 1001.93 1002.52 1003.26 1004.08 1004.89 1005.63 1006.25 1006.73 1007.08 1007.30 1007.45 1007.55 1007.66 1007.79 1007.96 1008.18 1008.44 1008.72 1008.99 1009.24 1009.44 1009.57 1009.65 1009.65 1009.59 1009.48 1009.34 1009.19 1009.05 1008.93 1008.85 1008.82 1008.84 1008.90 1009.01
1006.47 1005.77 1004.90 1003.93 1002.96 1002.10 1001.47 1001.14 1001.15 1001.51 1002.17 1003.07 1004.12 1005.20 1006.22 1007.12 1007.83 1008.36 1008.71 1008.91 1009.01 1009.07 1009.13 1009.22 1009.36 1009.56 1009.79 1010.03 1010.26 1010.43 1010.53 1010.55 1010.49 1010.35 1010.14 1009.91 1009.67 1009.44 1009.25 1009.11 1009.02 1008.98 1008.99 1009.03
1006.80 1006.20 1005.40 1004.47 1003.51 1002.63 1001.94 1001.55 1001.52 1001.85 1002.53 1003.50 1004.65 1005.87 1007.07 1008.13 1009.02 1009.68 1010.13 1010.39 1010.51 1010.55 1010.57 1010.61 1010.70 1010.84 1011.03 1011.24 1011.43 1011.58 1011.65 1011.64 1011.54 1011.36 1011.12 1010.85 1010.57 1010.32 1010.11 1009.95 1009.83 1009.76 1009.72 1009.67
1007.19 1006.77 1006.14 1005.37 1004.53 1003.72 1003.08 1002.69 1002.63 1002.92 1003.57 1004.50 1005.66 1006.91 1008.15 1009.29 1010.25 1010.99 1011.51 1011.82 1011.97 1012.02 1012.02 1012.04 1012.09 1012.19 1012.33 1012.50 1012.66 1012.79 1012.84 1012.82 1012.72 1012.55 1012.32 1012.07 1011.83 1011.61 1011.43 1011.30 1011.20 1011.12 1011.03 1010.90
1007.60 1007.40 1007.01 1006.48 1005.85 1005.21 1004.68 1004.35 1004.29 1004.54 1005.11 1005.96 1007.03 1008.21 1009.41 1010.52 1011.49 1012.25 1012.80 1013.14 1013.32 1013.39 1013.40 1013.40 1013.42 1013.49 1013.60 1013.73 1013.86 1013.97 1014.02 1014.01 1013.94 1013.81 1013.64 1013.47 1013.31 1013.17 1013.07 1013.00 1012.94 1012.87 1012.75 1012.56
1007.97 1008.00 1007.88 1007.63 1007.26 1006.86 1006.50 1006.27 1006.24 1006.45 1006.94 1007.66 1008.59 1009.64 1010.72 1011.74 1012.65 1013.39 1013.94 1014.30 1014.51 1014.60 1014.62 1014.63 1014.64 1014.68 1014.76 1014.86 1014.96 1015.05 1015.10 1015.11 1015.08 1015.02 1014.94 1014.87 1014.81 1014.79 1014.79 1014.80 1014.79 1014.75 1014.62 1014.38
1008.27 1008.50 1008.64 1008.66 1008.58 1008.43 1008.27 1008.17 1008.19 1008.39 1008.79 1009.39 1010.16 1011.04 1011.97 1012.87 1013.69 1014.38 1014.91 1015.28 1015.51 1015.64 1015.69 1015.70 1015.71 1015.73 1015.78 1015.84 1015.91 1015.98 1016.03 1016.06 1016.08 1016.09 1016.10 1016.13 1016.19 1016.27 1016.36 1016.45 1016.51 1016.49 1016.36 1016.10
1008.47 1008.86 1009.22 1009.49 1009.67 1009.76 1009.80 1009.85 1009.95 1010.15 1010.48 1010.97 1011.59 1012.31 1013.08 1013.86 1014.58 1015.21 1015.72 1016.10 1016.36 1016.52 1016.59 1016.63 1016.64 1016.64 1016.66 1016.68 1016.72 1016.76 1016.80 1016.84 1016.89 1016.95 1017.04 1017.15 1017.28 1017.44 1017.61 1017.75 1017.85 1017.86 1017.73 1017.46
1008.62 1009.11 1009.62 1010.09 1010.48 1010.78 1011.01 1011.19 1011.37 1011.59 1011.89 1012.29 1012.80 1013.39 1014.03 1014.70 1015.34 1015.92 1016.42 1016.81 1017.10 1017.29 1017.40 1017.45 1017.46 1017.45 1017.43 1017.42 1017.41 1017.41 1017.43 1017.46 1017.52 1017.60 1017.72 1017.87 1018.04 1018.24 1018.43 1018.60 1018.70 1018.70 1018.58 1018.30
1008.78 1009.33 1009.93 1010.53 1011.08 1011.54 1011.91 1012.21 1012.48 1012.73 1013.03 1013.38 1013.80 1014.30 1014.86 1015.45 1016.03 1016.59 1017.08 1017.49 1017.80 1018.02 1018.15 1018.22 1018.23 1018.20 1018.15 1018.09 1018.03 1017.99 1017.96 1017.97 1018.00 1018.08 1018.19 1018.33 1018.50 1018.68 1018.85 1018.99 1019.06 1019.04 1018.90 1018.63
1009.04 1009.61 1010.26 1010.94 1011.58 1012.15 1012.63 1013.02 1013.35 1013.65 1013.96 1014.29 1014.68 1015.13 1015.64 1016.18 1016.74 1017.27 1017.77 1018.19 1018.52 1018.76 1018.92 1018.98 1018.98 1018.93 1018.84 1018.73 1018.62 1018.53 1018.46 1018.41 1018.41 1018.44 1018.52 1018.62 1018.74 1018.87 1018.98 1019.05 1019.06 1018.98 1018.81 1018.53
1009.49 1010.06 1010.73 1011.43 1012.12 1012.74 1013.28 1013.74 1014.13 1014.48 1014.81 1015.15 1015.53 1015.97 1016.45 1016.98 1017.51 1018.04 1018.54 1018.96 1019.31 1019.56 1019.71 1019.77 1019.75 1019.66 1019.53 1019.38 1019.22 1019.07 1018.95 1018.85 1018.80 1018.78 1018.80 1018.84 1018.89 1018.93 1018.96 1018.94 1018.86 1018.71 1018.49 1018.19
1010.18 1010.74 1011.40 1012.10 1012.79 1013.43 1014.01 1014.50 1014.93 1015.31 1015.68 1016.04 1016.44 1016.88 1017.36 1017.87 1018.40 1018.92 1019.40 1019.82 1020.16 1020.39 1020.53 1020.57 1020.52 1020.40 1020.23 1020.03 1019.82 1019.63 1019.46 1019.32 1019.22 1019.15 1019.11 1019.08 1019.05 1019.01 1018.94 1018.82 1018.66 1018.43 1018.15 1017.83
1011.09 1011.65 1012.29 1012.97 1013.65 1014.28 1014.86 1015.37 1015.83 1016.24 1016.63 1017.03 1017.44 1017.89 1018.37 1018.88 1019.39 1019.89 1020.34 1020.73 1021.04 1021.24 1021.35 1021.35 1021.27 1021.11 1020.90 1020.67 1020.43 1020.20 1020.00 1019.83 1019.69 1019.58 1019.49 1019.41 1019.32 1019.20 1019.05 1018.85 1018.60 1018.31 1017.97 1017.60
1012.20 1012.75 1013.37 1014.02 1014.66 1015.27 1015.83 1016.35 1016.81 1017.25 1017.67 1018.09 1018.52 1018.98 1019.45 1019.94 1020.42 1020.88 1021.30 1021.64 1021.90 1022.05 1022.11 1022.08 1021.95 1021.77 1021.53 1021.28 1021.02 1020.77 1020.56 1020.37 1020.21 1020.08 1019.96 1019.84 1019.71 1019.54 1019.33 1019.08 1018.77 1018.42 1018.04 1017.64
1013.39 1013.95 1014.55 1015.16 1015.75 1016.33 1016.87 1017.38 1017.85 1018.30 1018.73 1019.17 1019.61 1020.07 1020.53 1020.98 1021.42 1021.83 1022.19 1022.47 1022.66 1022.77 1022.78 1022.70 1022.55 1022.35 1022.10 1021.84 1021.58 1021.33 1021.11 1020.93 1020.77 1020.63 1020.50 1020.37 1020.22 1020.03 1019.79 1019.51 1019.18 1018.80 1018.39 1017.97
1014.58 1015.13 1015.70 1016.26 1016.82 1017.36 1017.87 1018.36 1018.84 1019.29 1019.74 1020.18 1020.63 1021.07 1021.50 1021.92 1022.31 1022.65 1022.94 1023.16 1023.29 1023.35 1023.32 1023.22 1023.05 1022.84 1022.60 1022.34 1022.10 1021.87 1021.66 1021.48 1021.33 1021.20 1021.07 1020.94 1020.78 1020.59 1020.36 1020.08 1019.75 1019.37 1018.96 1018.53
1015.67 1016.19 1016.72 1017.24 1017.75 1018.26 1018.75 1019.23 1019.70 1020.16 1020.62 1021.06 1021.50 1021.92 1022.32 1022.69 1023.02 1023.30 1023.52 1023.68 1023.77 1023.78 1023.73 1023.62 1023.45 1023.26 1023.04 1022.81 1022.59 1022.38 1022.19 1022.03 1021.88 1021.75 1021.62 1021.49 1021.34 1021.17 1020.95 1020.69 1020.38 1020.03 1019.64 1019.22
1016.59 1017.08 1017.56 1018.03 1018.51 1018.98 1019.45 1019.92 1020.40 1020.86 1021.32 1021.76 1022.19 1022.58 1022.95 1023.27 1023.54 1023.76 1023.93 1024.04 1024.09 1024.08 1024.02 1023.92 1023.78 1023.62 1023.44 1023.24 1023.05 1022.87 1022.70 1022.54 1022.40 1022.26 1022.13 1022.00 1021.85 1021.68 1021.48 1021.25 1020.97 1020.66 1020.31 1019.93
1017.32 1017.77 1018.20 1018.63 1019.07 1019.52 1019.98 1020.45 1020.92 1021.39 1021.85 1022.29 1022.70 1023.07 1023.39 1023.67 1023.89 1024.06 1024.18 1024.26 1024.28 1024.27 1024.23 1024.15 1024.06 1023.94 1023.80 1023.66 1023.50 1023.35 1023.19 1023.03 1022.87 1022.72 1022.57 1022.42 1022.26 1022.09 1021.90 1021.69 1021.45 1021.19 1020.88 1020.55
1017.89 1018.29 1018.67 1019.07 1019.48 1019.91 1020.36 1020.84 1021.32 1021.80 1022.26 1022.69 1023.08 1023.43 1023.71 1023.94 1024.12 1024.25 1024.33 1024.38 1024.40 1024.40 1024.38 1024.34 1024.29 1024.22 1024.14 1024.04 1023.92 1023.79 1023.63 1023.47 1023.29 1023.11 1022.93 1022.75 1022.56 1022.38 1022.19 1022.00 1021.79 1021.56 1021.30 1021.02
1018.34 1018.69 1019.04 1019.40 1019.79 1020.22 1020.68 1021.16 1021.65 1022.14 1022.60 1023.03 1023.40 1023.71 1023.96 1024.15 1024.28 1024.37 1024.43 1024.46 1024.47 1024.48 1024.49 1024.49 1024.49 1024.47 1024.44 1024.38 1024.29 1024.17 1024.02 1023.84 1023.65 1023.43 1023.21 1022.99 1022.77 1022.56 1022.36 1022.16 1021.97 1021.76 1021.55 1021.31
1018.72 1019.03 1019.35 1019.70 1020.09 1020.52 1020.99 1021.49 1021.99 1022.48 1022.94 1023.36 1023.71 1023.99 1024.20 1024.35 1024.44 1024.49 1024.52 1024.52 1024.53 1024.55 1024.57 1024.60 1024.63 1024.65 1024.66 1024.63 1024.57 1024.46 1024.31 1024.13 1023.91 1023.66 1023.41 1023.15 1022.90 1022.66 1022.43 1022.23 1022.03 1021.84 1021.64 1021.43
1019.07 1019.36 1019.67 1020.02 1020.42 1020.86 1021.34 1021.85 1022.36 1022.86 1023.32 1023.72 1024.04 1024.29 1024.47 1024.57 1024.62 1024.63 1024.62 1024.60 1024.59 1024.60 1024.62 1024.66 1024.71 1024.75 1024.78 1024.77 1024.72 1024.63 1024.48 1024.29 1024.06 1023.80 1023.52 1023.24 1022.96 1022.69 1022.45 1022.22 1022.01 1021.81 1021.62 1021.42
Thickness
5758 5766 5768 5768 5772 5782 5781 5783 5777 5779 5775 5779 5786 5790 5793 5801 5804 5801 5798 5796 5795 5792 5790 5788 5786 5784 5782 5779 5777 5775 5771 5767 5763 5762 5761 5758 5756 5753 5752 5750 5748 5746 5744 5742
5744 5758 5761 5761 5771 5778 5782 5786 5786 5783 5774 5790 5791 5791 5792 5795 5796 5791 5790 5791 5791 5790 5786 5783 5782 5780 5778 5776 5774 5772 5768 5765 5763 5761 5758 5756 5754 5752 5750 5748 5747 5745 5742 5740
5729 5745 5746 5744 5766 5773 5778 5788 5787 5776 5775 5785 5782 5781 5783 5788 5788 5787 5787 5787 5784 5784 5783 5781 5779 5777 5774 5773 5771 5768 5764 5762 5760 5758 5755 5754 5752 5750 5747 5745 5743 5741 5740 5738
5725 5728 5715 5750 5780 5784 5782 5785 5790 5785 5780 5780 5779 5780 5785 5785 5783 5782 5781 5782 5781 5780 5778 5777 5777 5774 5772 5769 5765 5762 5759 5757 5756 5754 5752 5750 5748 5746 5745 5743 5740 5738 5737 5736
5718 5716 5729 5756 5774 5777 5772 5767 5784 5780 5778 5776 5777 5774 5771 5775 5776 5776 5777 5777 5776 5776 5774 5771 5770 5769 5766 5762 5759 5756 5753 5752 5752 5750 5748 5746 5744 5743 5741 5739 5736 5735 5734 5732
5712 5705 5709 5738 5761 5776 5769 5749 5774 5777 5774 5772 5770 5753 5751 5764 5770 5771 5772 5771 5770 5771 5768 5764 5763 5763 5759 5755 5753 5751 5750 5750 5749 5747 5745 5742 5741 5739 5738 5735 5733 5731 5729 5728
5703 5701 5714 5737 5755 5765 5737 5737 5763 5769 5769 5766 5760 5754 5754 5760 5762 5763 5763 5764 5764 5762 5760 5757 5757 5755 5751 5749 5748 5748 5748 5747 5745 5743 5741 5739 5737 5735 5732 5730 5728 5726 5724 5722
5698 5694 5698 5731 5739 5735 5736 5752 5757 5759 5761 5758 5756 5754 5753 5752 5752 5754 5754 5754 5755 5753 5750 5750 5750 5747 5743 5742 5744 5744 5743 5741 5738 5737 5737 5735 5731 5728 5727 5724 5721 5719 5717 5715
5692 5693 5705 5720 5725 5732 5743 5743 5746 5749 5751 5751 5747 5744 5742 5742 5742 5743 5744 5745 5746 5744 5741 5741 5741 5740 5736 5736 5739 5738 5736 5734 5732 5731 5730 5728 5725 5721 5719 5717 5715 5713 5710 5708
5686 5691 5703 5713 5721 5726 5733 5734 5738 5741 5742 5742 5737 5735 5733 5731 5731 5732 5734 5735 5736 5735 5732 5731 5732 5732 5731 5732 5732 5731 5728 5727 5726 5723 5721 5718 5716 5714 5711 5709 5707 5706 5704 5702
5679 5685 5693 5700 5707 5712 5720 5726 5728 5730 5730 5730 5727 5725 5723 5721 5721 5722 5724 5726 5726 5725 5723 5723 5724 5723 5724 5725 5725 5723 5722 5721 5720 5716 5713 5708 5704 5701 5701 5698 5698 5699 5698 5696
5671 5682 5684 5685 5697 5704 5707 5712 5714 5716 5716 5718 5717 5714 5713 5712 5712 5713 5714 5715 5715 5715 5715 5715 5716 5716 5717 5718 5718 5716 5715 5715 5713 5710 5705 5701 5695 5690 5687 5688 5688 5689 5689 5687
5674 5679 5681 5684 5689 5695 5699 5701 5703 5705 5706 5706 5705 5705 5703 5702 5702 5703 5704 5705 5706 5706 5708 5708 5708 5709 5709 5710 5710 5709 5707 5706 5705 5702 5699 5695 5691 5687 5682 5678 5677 5676 5676 5676
5668 5671 5671 5676 5680 5687 5690 5692 5694 5694 5695 5696 5695 5694 5693 5693 5693 5694 5695 5696 5698 5700 5700 5700 5700 5700 5702 5702 5702 5702 5701 5699 5697 5695 5692 5689 5686 5683 5680 5676 5672 5668 5664 5662
5659 5663 5665 5670 5675 5677 5680 5681 5679 5679 5681 5683 5684 5683 5683 5682 5682 5683 5685 5687 5689 5690 5690 5691 5692 5692 5694 5694 5694 5693 5692 5691 5690 5689 5685 5682 5681 5678 5675 5671 5666 5662 5658 5653
5650 5654 5657 5660 5663 5666 5668 5668 5668 5668 5670 5671 5671 5672 5673 5673 5673 5674 5675 5677 5678 5678 5679 5681 5682 5683 5685 5686 5686 5685 5683 5682 5682 5680 5677 5674 5672 5669 5665 5662 5658 5653 5649 5645
5637 5639 5643 5647 5651 5654 5656 5658 5658 5659 5659 5660 5661 5663 5664 5664 5663 5663 5664 5665 5666 5667 5668 5670 5671 5674 5676 5677 5677 5677 5675 5672 5671 5670 5667 5665 5662 5659 5655 5652 5648 5643 5638 5633
5632 5635 5639 5642 5643 5644 5645 5648 5649 5649 5650 5650 5651 5652 5652 5652 5651 5651 5652 5654 5655 5655 5656 5658 5661 5663 5665 5666 5666 5666 5664 5662 5660 5657 5655 5653 5650 5647 5643 5640 5636 5632 5626 5622
5625 5628 5631 5634 5635 5636 5636 5638 5639 5640 5641 5640 5640 5639 5640 5640 5641 5641 5642 5643 5643 5642 5643 5646 5649 5652 5652 5653 5654 5653 5652 5650 5647 5644 5642 5638 5637 5634 5630 5626 5622 5618 5614 5610
5618 5621 5623 5624 5626 5626 5626 5628 5629 5629 5630 5629 5629 5629 5629 5629 5630 5630 5631 5630 5629 5630 5632 5634 5637 5638 5639 5639 5639 5639 5638 5636 5633 5631 5628 5625 5622 5618 5615 5612 5608 5603 5599 5594
5611 5613 5615 5615 5616 5617 5618 5619 5619 5619 5619 5619 5619 5618 5618 5618 5619 5619 5619 5618 5616 5619 5621 5623 5624 5623 5625 5624 5626 5626 5625 5623 5620 5617 5615 5611 5608 5605 5601 5597 5593 5589 5584 5579
5604 5606 5608 5608 5608 5608 5609 5610 5611 5611 5610 5610 5610 5609 5608 5608 5608 5607 5606 5605 5605 5607 5610 5611 5610 5609 5611 5612 5613 5612 5611 5609 5605 5603 5600 5597 5594 5590 5586 5582 5578 5574 5569 5565
5599 5600 5601 5601 5600 5600 5601 5601 5601 5601 5601 5600 5599 5599 5599 5598 5599 5598 5595 5594 5596 5596 5598 5596 5596 5597 5598 5600 5600 5598 5596 5594 5591 5588 5585 5583 5580 5576 5572 5568 5564 5560 5555 5551
5593 5594 5594 5594 5594 5593 5592 5591 5591 5591 5591 5590 5590 5590 5590 5589 5588 5587 5586 5583 5585 5586 5586 5584 5585 5586 5587 5587 5586 5584 5582 5580 5578 5575 5573 5570 5567 5563 5559 5555 5550 5546 5542 5538
5587 5588 5587 5587 5586 5585 5584 5584 5584 5583 5583 5582 5582 5582 5582 5581 5580 5578 5577 5577 5576 5577 5577 5576 5576 5576 5577 5576 5574 5572 5569 5566 5564 5562 5558 5555 5552 5548 5544 5541 5536 5532 5528 5523
5579 5580 5580 5580 5580 5580 5580 5579 5578 5578 5577 5575 5574 5573 5572 5572 5571 5570 5570 5570 5570 5569 5569 5569 5568 5567 5565 5564 5562 5559 5557 5553 5551 5547 5544 5540 5537 5533 5529 5526 5521 5517 5513 5508
5571 5572 5573 5573 5573 5573 5574 5573 5573 5572 5571 5569 5567 5566 5565 5564 5564 5563 5562 5562 5561 5561 5560 5559 5558 5556 5554 5552 5550 5547 5544 5541 5537 5534 5531 5527 5523 5519 5516 5512 5508 5504 5499 5495